Weather History for Troy, AL

Change the Weather History Date:

Saturday, September 15, 2012

  Actual Average Record
Temperature  
Mean Temperature 76 °F 76 °F  
Max Temperature 86 °F 87 °F 94 °F (2010)
Min Temperature 65 °F 64 °F 57 °F (2006)
Degree Days  
Heating Degree Days 0 0  
Month to date heating degree days 0 0  
Since 1 July heating degree days 0 0  
Cooling Degree Days 11 11  
Month to date cooling degree days 175 189  
Year to date cooling degree days 1925 1823  
Growing Degree Days 26 (Base 50)    
Moisture  
Dew Point 66 °F    
Average Humidity 74    
Maximum Humidity 97    
Minimum Humidity 51    
Precipitation  
Precipitation T in 0.15 in 0.42 in (2004)
Month to date precipitation 3.68 2.17  
Year to date precipitation 46.42 40.12  
Sea Level Pressure  
Sea Level Pressure 30.11 in    
Wind  
Wind Speed 2 mph (ENE)    
Max Wind Speed 8 mph    
Max Gust Speed 13 mph    
Visibility 10 miles    
Events      
T = Trace of Precipitation, MM = Missing Value Source: NWS Daily Summary

Daily Weather History Graph

Daily Weather History Graph

Search for Another Location

Airport:

Trip Planner

Search our weather history database for the weather conditions in past years. The results will help you decide how hot, cold, wet, or windy it might be!

Date:

Astronomy

Sep. 15, 2012 Rise Set
Actual Time 6:28 AM CDT 6:49 PM CDT
Civil Twilight 6:03 AM CDT 7:13 PM CDT
Nautical Twilight 5:35 AM CDT 7:42 PM CDT
Astronomical Twilight 5:06 AM CDT 8:11 PM CDT
Moon 5:57 AM CDT (9/15) 6:22 PM CDT (9/15)
Length of Visible Light 13h 09m
Length of Day
12h 20m
Waning Crescent, 0% of the Moon is Illuminated
Sep 15
Waning Crescent
Sep 15
New
Sep 22
First Quarter
Sep 29
Full
Oct 8
Last Quarter

Hourly Weather History & Observations

Time (CDT) Temp. Heat Index Dew Point Humidity Pressure Visibility Wind Dir Wind Speed Gust Speed Precip Events Conditions
12:53 AM 70.0 °F - 66.0 °F 87% 30.14 in 10.0 mi Calm Calm - N/A   Overcast
1:53 AM 69.1 °F - 64.9 °F 87% 30.13 in 10.0 mi Calm Calm - N/A   Overcast
2:53 AM 69.1 °F - 64.0 °F 84% 30.12 in 10.0 mi Calm Calm - N/A   Mostly Cloudy
3:53 AM 66.9 °F - 63.0 °F 87% 30.12 in 10.0 mi Calm Calm - N/A   Partly Cloudy
4:53 AM 66.0 °F - 63.0 °F 90% 30.12 in 10.0 mi Calm Calm - N/A   Scattered Clouds
5:53 AM 66.0 °F - 63.0 °F 90% 30.13 in 10.0 mi Calm Calm - N/A   Clear
6:53 AM 66.0 °F - 63.0 °F 90% 30.16 in 10.0 mi Calm Calm - N/A   Clear
7:53 AM 68.0 °F - 64.0 °F 87% 30.17 in 10.0 mi ENE 3.5 mph - N/A   Overcast
8:53 AM 73.0 °F - 64.9 °F 76% 30.17 in 10.0 mi ENE 3.5 mph - N/A   Overcast
9:53 AM 75.9 °F - 66.0 °F 71% 30.17 in 10.0 mi ENE 5.8 mph - N/A   Partly Cloudy
10:53 AM 81.0 °F 83.0 °F 66.0 °F 60% 30.15 in 10.0 mi East 5.8 mph - N/A   Clear
11:53 AM 84.0 °F 86.3 °F 66.0 °F 55% 30.14 in 10.0 mi Variable 5.8 mph - N/A   Partly Cloudy
12:53 PM 82.9 °F 85.0 °F 66.0 °F 56% 30.12 in 10.0 mi ENE 6.9 mph - N/A   Mostly Cloudy
1:53 PM 84.0 °F 86.3 °F 66.0 °F 55% 30.10 in 10.0 mi NE 3.5 mph - N/A   Overcast
2:53 PM 86.0 °F 88.2 °F 66.0 °F 51% 30.08 in 10.0 mi NE 4.6 mph - N/A   Mostly Cloudy
3:53 PM 84.9 °F 87.1 °F 66.0 °F 53% 30.07 in 10.0 mi ENE 3.5 mph - N/A   Mostly Cloudy
4:53 PM 82.9 °F 85.0 °F 66.0 °F 56% 30.06 in 10.0 mi Calm Calm - 0.00 in   Overcast
5:53 PM 82.9 °F 85.0 °F 66.0 °F 56% 30.06 in 10.0 mi Calm Calm - N/A   Mostly Cloudy
6:53 PM 77.0 °F - 71.1 °F 82% 30.06 in 10.0 mi Calm Calm - N/A   Mostly Cloudy
7:53 PM 73.0 °F - 70.0 °F 90% 30.06 in 10.0 mi Calm Calm - N/A   Clear
8:53 PM 73.0 °F - 70.0 °F 90% 30.07 in 10.0 mi Calm Calm - N/A   Clear
9:53 PM 71.1 °F - 68.0 °F 90% 30.09 in 10.0 mi Calm Calm - N/A   Clear
10:53 PM 69.1 °F - 68.0 °F 96% 30.09 in 8.0 mi Calm Calm - N/A   Clear
11:53 PM 70.0 °F - 66.9 °F 90% 30.09 in 10.0 mi Calm Calm - N/A   Clear